• Processing (Info)

  • MPEC 2020-M30 : 2020 LT1

    The following Minor Planet Electronic Circular may be linked-to from your own Web pages, but must not otherwise be redistributed electronically.

    A form allowing access to any MPEC is at the bottom of this page.


    Read MPEC 2020-M29 Read MPEC 2020-M31


    M.P.E.C. 2020-M30                                 Issued 2020 June 19, 11:33 UT
    
         The Minor Planet Electronic Circulars contain information on unusual
             minor planets and routine data on comets.  They are published
        on behalf of Division F of the International Astronomical Union by the
              Minor Planet Center, Smithsonian Astrophysical Observatory,
                              Cambridge, MA 02138, U.S.A.
    
                 Prepared using the Tamkin Foundation Computer Network
    
                                  MPC@CFA.HARVARD.EDU
                URL https://www.minorplanetcenter.net/    ISSN 1523-6714
    
                                    2020 LT1                                 
    
    
    Observations:
         K20L01T* C2020 06 15.31959615 36 39.873-38 37 09.74         20.49wUEM030F51
         K20L01T  C2020 06 15.32799315 36 36.888-38 37 37.15         20.15wUEM030F51
         K20L01T  C2020 06 15.32864015 36 36.656-38 37 38.99         20.44wUEM030F51
         K20L01T  C2020 06 15.33705615 36 33.697-38 38 05.86         20.64wUEM030F51
         K20L01T  C2020 06 15.34613215 36 30.452-38 38 35.03         20.49wUEM030F51
         K20L01T  C2020 06 15.34677915 36 30.230-38 38 37.04         20.47wUEM030F51
         K20L01T ^C2020 06 16.36241315 30 45.159-39 33 08.18         20.58GVEM030568
         K20L01T ^C2020 06 16.36336915 30 44.813-39 33 11.18         21.02GVEM030568
         K20L01T ^C2020 06 16.36431715 30 44.460-39 33 14.10         20.88GVEM030568
         K20L01T ^C2020 06 16.36528715 30 44.093-39 33 17.34         20.83GVEM030568
         K20L01T KC2020 06 19.33886215 11 57.42 -42 16 53.8          21.5 GVEM030474
         K20L01T KC2020 06 19.34135315 11 56.26 -42 17 02.5          21.7 GVEM030474
         K20L01T KC2020 06 19.34348915 11 55.39 -42 17 10.3          21.2 GVEM030474
    
    Observer details:
    474 Mount John Observatory, Lake Tekapo.  Observers A. C. Gilmore, P. M.
        Kilmartin.  Measurer P. M. Kilmartin.  1.0-m f/7.7 reflector + CCD.
    568 Mauna Kea.  Observers R. Wainscoat, C. Wipper, T. Burdullis.  Measurers R.
        Weryk, R. Wainscoat.  3.6-m Canada-France-Hawaii Telescope + CCD.
    F51 Pan-STARRS 1, Haleakala.  Observers J. Bulger, T. Lowe, A. Schultz, M.
        Willman.  Measurers K. Chambers, S. Chastel, T. de Boer, L. Denneau, J.
        Fairlamb, H. Flewelling, M. Huber, C.-C. Lin, E. Magnier, Y. Ramanjooloo,
        R. Wainscoat, R. Weryk.  1.8-m Ritchey-Chretien + CCD.
    
    Orbital elements:
    2020 LT1                                                 Earth MOID = 0.0630 AU
    Epoch 2020 May 31.0 TT = JDT 2459000.5                  Veres
    M 312.39508              (2000.0)            P               Q
    n   0.54966777     Peri.  280.28702     +0.94532973     +0.29931186
    a   1.4759417      Node    62.39865     -0.21138441     +0.86471459
    e   0.3990946      Incl.    8.40121     -0.24833108     +0.40333743
    P   1.79           H   23.0           G   0.15           U   8
    Residuals in seconds of arc
    200615 F51  0.0   0.1+    200615 F51  0.0   0.1+    200619 474  0.4+  0.2+
    200615 F51  0.1-  0.3-    200616 568  0.1-  0.1-    200619 474  0.5-  0.1+
    200615 F51  0.1-  0.0     200616 568  0.0   0.0     200619 474  0.1+  0.3-
    200615 F51  0.2+  0.1+    200616 568  0.0   0.1+
    200615 F51  0.1-  0.0     200616 568  0.0   0.0
    
    Ephemeris:
    2020 LT1                 a,e,i = 1.48, 0.40, 8                   q = 0.8869
    Date    TT    R. A. (2000) Decl.     Delta      r    Elong.  Phase     V
    2020 05 20    16 51 25.6 -22 46 46   0.3282  1.3317   164.9    11.4    21.9
    ...
    2020 06 04    16 22 40.4 -29 57 12   0.2278  1.2397   170.5     7.8    20.8
    ...
    2020 06 12    15 53 16.3 -35 46 21   0.1876  1.1905   157.1    19.4    20.7
    ...
    2020 06 18    15 20 47.7 -41 02 09   0.1639  1.1539   144.8    30.5    20.7
    2020 06 19    15 14 14.4 -41 57 55   0.1605  1.1479   142.6    32.5    20.7
    2020 06 20    15 07 18.4 -42 54 10   0.1572  1.1418   140.4    34.5    20.7
    ...
    2020 06 26    14 16 33.0 -48 27 57   0.1412  1.1061   126.4    47.7    20.8
    ...
    2020 07 04    12 39 59.7 -53 59 18   0.1284  1.0603   106.5    66.9    21.0
    ...
    2020 07 19    09 13 51.5 -48 29 58   0.1302  0.9830    71.6   101.2    22.2
    
    M. P. C. Staff               (C) Copyright 2020 MPC           M.P.E.C. 2020-M30
    


    Read MPEC 2020-M29 Read MPEC 2020-M31


    MPEC number:

    Enter an MPEC number in one of the following forms:

    • 1997-B01 (the full form)
    • J97B01 (the packed version of the full form)
    • B01 (the abbreviated form)